Beirut Rafic Hariri International Airport


Codes: OLBA/BEY
Name: Beirut Rafic Hariri International Airport
City: Beirut
Country: Lebanon
Elevation: 87 ft.
Website:
Wikipedia:

Photos at Beirut Rafic Hariri International Airport


   Photos courtesy of SpottingLog. You can add your own sightings and photos by signing up for a free trial today.



VP-CCD, 03-Nov-2012
© Tobias Hottinger


Weather at Beirut Rafic Hariri International Airport


Time (UTC)DescriptionTempratureWindCloud coverageVisibilityPressureHumidity
17-Jun-2024 06:00Clear Sky25°C11 mph, SW0%10000m1011hPa67%
17-Jun-2024 09:00Clear Sky27°C11 mph, SW0%10000m1011hPa65%
17-Jun-2024 12:00Clear Sky27°C7 mph, W0%10000m1011hPa62%
17-Jun-2024 15:00Clear Sky26°C4 mph, SW0%10000m1010hPa63%
17-Jun-2024 18:00Clear Sky25°C4 mph, SW0%10000m1010hPa66%
17-Jun-2024 21:00Clear Sky25°C2 mph, NW0%10000m1010hPa70%
18-Jun-2024 00:00Clear Sky24°C2 mph, W0%10000m1010hPa73%
18-Jun-2024 03:00Clear Sky24°C4 mph, N0%10000m1010hPa76%
18-Jun-2024 06:00Clear Sky26°C4 mph, NW0%10000m1011hPa65%
18-Jun-2024 09:00Clear Sky27°C7 mph, NW0%10000m1011hPa57%
18-Jun-2024 12:00Clear Sky28°C9 mph, N0%10000m1010hPa54%
18-Jun-2024 15:00Clear Sky28°C7 mph, N0%10000m1009hPa53%
18-Jun-2024 18:00Clear Sky26°C7 mph, N0%10000m1009hPa63%
18-Jun-2024 21:00Clear Sky26°C7 mph, N0%10000m1009hPa66%
19-Jun-2024 00:00Clear Sky25°C4 mph, N0%10000m1008hPa69%
19-Jun-2024 03:00Clear Sky25°C4 mph, N0%10000m1008hPa66%
19-Jun-2024 06:00Clear Sky27°C7 mph, NW0%10000m1008hPa59%
19-Jun-2024 09:00Clear Sky29°C7 mph, N0%10000m1008hPa56%
19-Jun-2024 12:00Clear Sky30°C11 mph, N0%10000m1007hPa53%
19-Jun-2024 15:00Clear Sky29°C9 mph, N0%10000m1006hPa60%
19-Jun-2024 18:00Clear Sky28°C9 mph, N0%10000m1006hPa72%
19-Jun-2024 21:00Clear Sky27°C4 mph, NW0%10000m1007hPa81%
20-Jun-2024 00:00Clear Sky26°C2 mph, W1%10000m1007hPa84%
20-Jun-2024 03:00Clear Sky26°C4 mph, SW1%10000m1008hPa85%
20-Jun-2024 06:00Clear Sky27°C7 mph, SW2%10000m1008hPa74%
20-Jun-2024 09:00Clear Sky29°C7 mph, SW3%10000m1008hPa60%
20-Jun-2024 12:00Clear Sky29°C9 mph, SW1%10000m1007hPa66%
20-Jun-2024 15:00Clear Sky28°C7 mph, SW0%10000m1007hPa69%
20-Jun-2024 18:00Clear Sky27°C7 mph, SW0%10000m1007hPa75%
20-Jun-2024 21:00Clear Sky26°C9 mph, SW0%10000m1008hPa77%
21-Jun-2024 00:00Clear Sky26°C9 mph, SW0%10000m1008hPa74%
21-Jun-2024 03:00Clear Sky26°C7 mph, SW0%10000m1008hPa66%
21-Jun-2024 06:00Clear Sky28°C11 mph, SW0%10000m1009hPa66%
21-Jun-2024 09:00Clear Sky28°C13 mph, SW0%10000m1009hPa70%
21-Jun-2024 12:00Clear Sky28°C11 mph, SW0%10000m1008hPa71%
21-Jun-2024 15:00Clear Sky28°C9 mph, SW0%10000m1007hPa70%
21-Jun-2024 18:00Clear Sky27°C9 mph, SW0%10000m1008hPa77%
21-Jun-2024 21:00Clear Sky26°C9 mph, SW0%10000m1008hPa73%
22-Jun-2024 00:00Clear Sky26°C7 mph, SW0%10000m1007hPa69%
22-Jun-2024 03:00Clear Sky26°C7 mph, SW0%10000m1007hPa66%